Weather History for KECS - August, 2013

Change the Weather History Date:

Tuesday, August 13, 2013

  Actual Average (KCUT) Record (KCUT)
Temperature  
Mean Temperature 66 °F 65 °F  
Max Temperature 80 °F 78 °F 95 °F (2007)
Min Temperature 53 °F 51 °F 29 °F (1966)
Degree Days  
Heating Degree Days 0 3  
Month to date heating degree days 27  
Since 1 June heating degree days 308  
Since 1 July heating degree days 88  
Cooling Degree Days 2 2  
Month to date cooling degree days 26  
Year to date cooling degree days 133  
Since 1 June cooling degree days 132  
Growing Degree Days 16 (Base 50)    
Moisture  
Dew Point 54 °F    
Average Humidity 70    
Maximum Humidity 94    
Minimum Humidity 34    
Precipitation  
Precipitation 0.41 in 0.07 in 1.66 in (1947)
Month to date precipitation 0.89  
Year to date precipitation 13.66  
Sea Level Pressure  
Sea Level Pressure 30.19 in    
Wind  
Wind Speed 6 mph (SE)    
Max Wind Speed 23 mph    
Max Gust Speed 40 mph    
Visibility 10 miles    
Events Rain , Thunderstorm    
T = Trace of Precipitation, MM = Missing Value Source: NWS Daily Summary

Daily Weather History Graph

Daily Weather History Graph

Search for Another Location

Airport or City:

Trip Planner

Search our weather history database for the weather conditions in past years. The results will help you decide how hot, cold, wet, or windy it might be!

Date:

Astronomy

Aug. 13, 2013 Rise Set
Actual Time 5:59 AM MDT 8:03 PM MDT
Civil Twilight 5:28 AM MDT 8:35 PM MDT
Nautical Twilight 4:49 AM MDT 9:13 PM MDT
Astronomical Twilight 4:06 AM MDT 9:55 PM MDT
Moon 1:13 PM MDT (8/13) 11:24 PM MDT (8/13)
Length of Visible Light 15h 07m
Length of Day
14h 04m
Waxing Crescent, 42% of the Moon is Illuminated
Aug 13
Waxing Crescent
Aug 14
First Quarter
Aug 20
Full
Aug 28
Last Quarter
Sep 5
New

Hourly Weather History & Observations

Time (MDT) Temp. Heat Index Dew Point Humidity Pressure Visibility Wind Dir Wind Speed Gust Speed Precip Events Conditions
12:15 AM 64.4 °F - 55.4 °F 73% 30.16 in 10.0 mi North - - N/A   Clear
12:35 AM 66.2 °F - 53.6 °F 64% 30.16 in 10.0 mi North - - N/A   Clear
12:55 AM 66.2 °F - 53.6 °F 64% 30.16 in 10.0 mi North - - N/A   Clear
1:15 AM 66.2 °F - 53.6 °F 64% 30.16 in 10.0 mi East 9.2 mph - N/A   Clear
1:35 AM 64.4 °F - 53.6 °F 68% 30.16 in 10.0 mi East 5.8 mph - N/A   Clear
1:55 AM 62.6 °F - 53.6 °F 72% 30.16 in 10.0 mi WNW 6.9 mph - N/A   Clear
2:15 AM 60.8 °F - 53.6 °F 77% 30.16 in 10.0 mi WNW 5.8 mph - N/A   Clear
2:35 AM 59.0 °F - 53.6 °F 82% 30.16 in 10.0 mi NW 3.5 mph - N/A   Clear
2:55 AM 59.0 °F - 53.6 °F 82% 30.16 in 10.0 mi North 4.6 mph - N/A   Clear
3:15 AM 59.0 °F - 53.6 °F 82% 30.16 in 10.0 mi Calm Calm - N/A   Clear
3:35 AM 57.2 °F - 53.6 °F 88% 30.16 in 10.0 mi North - - N/A   Clear
3:55 AM 57.2 °F - 53.6 °F 88% 30.16 in 10.0 mi Calm Calm - N/A   Clear
4:15 AM 57.2 °F - 53.6 °F 88% 30.16 in 10.0 mi Calm Calm - N/A   Clear
4:35 AM 57.2 °F - 51.8 °F 82% 30.17 in 10.0 mi Calm Calm - N/A   Clear
4:55 AM 55.4 °F - 51.8 °F 88% 30.17 in 10.0 mi East 5.8 mph - N/A   Clear
5:15 AM 55.4 °F - 51.8 °F 88% 30.19 in 10.0 mi West 3.5 mph - N/A   Clear
5:35 AM 55.4 °F - 51.8 °F 88% 30.19 in 10.0 mi North 3.5 mph - N/A   Clear
5:55 AM 55.4 °F - 51.8 °F 88% 30.19 in 10.0 mi North 4.6 mph - N/A   Clear
6:15 AM 55.4 °F - 51.8 °F 88% 30.19 in 10.0 mi North 3.5 mph - N/A   Clear
6:35 AM 55.4 °F - 51.8 °F 88% 30.19 in 10.0 mi NNE 3.5 mph - N/A   Clear
6:55 AM 55.4 °F - 53.6 °F 94% 30.19 in 10.0 mi Calm Calm - N/A   Clear
7:15 AM 55.4 °F - 53.6 °F 94% 30.20 in 10.0 mi Calm Calm - N/A   Clear
7:35 AM 59.0 °F - 55.4 °F 88% 30.21 in 7.0 mi Calm Calm - N/A   Clear
7:55 AM 60.8 °F - 55.4 °F 82% 30.21 in 10.0 mi Calm Calm - N/A   Clear
8:15 AM 60.8 °F - 55.4 °F 82% 30.22 in 10.0 mi North - - N/A   Mostly Cloudy
8:35 AM 62.6 °F - 55.4 °F 77% 30.23 in 5.0 mi South 4.6 mph - N/A   Haze
8:55 AM 62.6 °F - 55.4 °F 77% 30.23 in 10.0 mi Calm Calm - N/A   Overcast
9:15 AM 62.6 °F - 55.4 °F 77% 30.23 in 10.0 mi Calm Calm - N/A   Overcast
9:35 AM 64.4 °F - 55.4 °F 73% 30.24 in 10.0 mi SSW 4.6 mph - N/A   Overcast
9:55 AM 64.4 °F - 57.2 °F 77% 30.24 in 10.0 mi South 5.8 mph - N/A   Overcast
10:15 AM 66.2 °F - 57.2 °F 73% 30.24 in 10.0 mi SSW 4.6 mph - N/A   Scattered Clouds
10:35 AM 68.0 °F - 57.2 °F 68% 30.22 in 7.0 mi SSW 4.6 mph - N/A   Scattered Clouds
10:55 AM 68.0 °F - 57.2 °F 68% 30.23 in 10.0 mi SSW 3.5 mph - N/A   Clear
11:15 AM 68.0 °F - 59.0 °F 73% 30.23 in 10.0 mi Calm Calm - N/A   Clear
11:35 AM 69.8 °F - 59.0 °F 68% 30.24 in 7.0 mi SSW 5.8 mph - N/A   Mostly Cloudy
11:55 AM 69.8 °F - 59.0 °F 68% 30.23 in 7.0 mi SSW 5.8 mph - N/A   Mostly Cloudy
12:15 PM 71.6 °F - 60.8 °F 69% 30.22 in 10.0 mi South 5.8 mph - N/A   Mostly Cloudy
12:35 PM 71.6 °F - 59.0 °F 64% 30.22 in 10.0 mi North - - N/A   Mostly Cloudy
12:55 PM 73.4 °F - 59.0 °F 61% 30.20 in 10.0 mi North - - N/A   Scattered Clouds
1:15 PM 75.2 °F - 59.0 °F 57% 30.20 in 10.0 mi North - - N/A   Scattered Clouds
1:35 PM 75.2 °F - 59.0 °F 57% 30.19 in 10.0 mi North - - N/A   Scattered Clouds
1:55 PM 77.0 °F - 59.0 °F 54% 30.18 in 10.0 mi North - - N/A   Scattered Clouds
2:15 PM 78.8 °F - 55.4 °F 44% 30.17 in 10.0 mi North - - N/A   Scattered Clouds
2:35 PM 78.8 °F - 53.6 °F 42% 30.17 in 10.0 mi SSE 15.0 mph - N/A   Scattered Clouds
2:55 PM 80.6 °F - 51.8 °F 37% 30.17 in 10.0 mi SSE 12.7 mph - N/A   Scattered Clouds
3:15 PM 80.6 °F - 51.8 °F 37% 30.16 in 10.0 mi North - - N/A   Clear
3:35 PM 80.6 °F - 51.8 °F 37% 30.16 in 10.0 mi SSE 15.0 mph 18.4 mph N/A   Clear
3:55 PM 80.6 °F - 50.0 °F 34% 30.15 in 10.0 mi SSE 10.4 mph 19.6 mph N/A   Clear
4:15 PM 80.6 °F - 51.8 °F 37% 30.15 in 10.0 mi SE 9.2 mph - N/A   Clear
4:35 PM 80.6 °F 80.3 °F 53.6 °F 39% 30.14 in 10.0 mi SE 11.5 mph 18.4 mph N/A   Scattered Clouds
4:55 PM 80.6 °F 80.3 °F 53.6 °F 39% 30.13 in 10.0 mi SE 11.5 mph 16.1 mph N/A   Clear
5:15 PM 80.6 °F - 51.8 °F 37% 30.12 in 10.0 mi SSE 13.8 mph - N/A   Clear
6:15 PM 73.4 °F - 44.6 °F 36% 30.17 in 10.0 mi NE 16.1 mph 40.3 mph N/A   Mostly Cloudy
6:35 PM 68.0 °F - 42.8 °F 40% 30.18 in 10.0 mi North 23.0 mph 31.1 mph N/A   Overcast
6:55 PM 55.4 °F - 50.0 °F 82% 30.19 in 2.5 mi North 19.6 mph 38.0 mph 0.10 in Rain , Thunderstorm Heavy Thunderstorms and Rain
7:15 PM 53.6 °F - 50.0 °F 88% 30.23 in 4.0 mi West 11.5 mph 17.3 mph 0.28 in Rain , Thunderstorm Light Thunderstorms and Rain
7:35 PM 55.4 °F - 50.0 °F 82% 30.23 in 10.0 mi West 10.4 mph - 0.31 in Rain , Thunderstorm Thunderstorms and Rain
7:55 PM 57.2 °F - 51.8 °F 82% 30.21 in 10.0 mi WNW 10.4 mph 19.6 mph 0.31 in Rain Rain
8:15 PM 59.0 °F - 51.8 °F 77% 30.15 in 10.0 mi NNE 9.2 mph - N/A Rain , Thunderstorm Light Thunderstorms and Rain
8:35 PM 60.8 °F - 50.0 °F 68% 30.12 in 10.0 mi ENE 10.4 mph - N/A Rain , Thunderstorm Light Thunderstorms and Rain
8:55 PM 60.8 °F - 51.8 °F 72% 30.16 in 10.0 mi South 12.7 mph - N/A   Clear
9:15 PM 60.8 °F - 51.8 °F 72% 30.16 in 10.0 mi East 11.5 mph - N/A   Clear
9:35 PM 59.0 °F - 51.8 °F 77% 30.19 in 10.0 mi East 8.1 mph - N/A   Clear
9:55 PM 60.8 °F - 50.0 °F 68% 30.19 in 10.0 mi ESE 5.8 mph - N/A   Clear
10:15 PM 60.8 °F - 51.8 °F 72% 30.19 in 10.0 mi East 4.6 mph - N/A   Clear
10:35 PM 59.0 °F - 50.0 °F 72% 30.19 in 10.0 mi Calm Calm - N/A   Clear
10:55 PM 59.0 °F - 51.8 °F 77% 30.20 in 10.0 mi South 3.5 mph - N/A   Clear
11:15 PM 59.0 °F - 51.8 °F 77% 30.20 in 10.0 mi Calm Calm - N/A   Clear
11:35 PM 59.0 °F - 51.8 °F 77% 30.20 in 10.0 mi NNE 4.6 mph - N/A   Clear
11:55 PM 57.2 °F - 51.8 °F 82% 30.19 in 10.0 mi North 5.8 mph - N/A   Clear